Regional Weather Roundup
Issued by NWS Newport/Morehead, NC

Current Version | Previous Version | Graphics & Text | Print | Product List | Glossary Off
Versions: 1 2 3 4 5 6 7 8 9 10 11 12 13 14 15 16 17 18 19 20 21 22 23 24 25 26 27 28 29 30 31 32 33 34 35 36 37 38 39 40 41 42 43 44 45 46 47 48 49 50

996
ASUS42 KMHX 221813
RWRMHX
WEATHER ROUNDUP FOR EASTERN NORTH CAROLINA
NATIONAL WEATHER SERVICE NEWPORT/MOREHEAD CITY NC
200 PM EDT MON MAY 22 2017

NOTE: "FAIR" INDICATES FEW OR NO CLOUDS BELOW 12,000 FEET
WITH NO SIGNIFICANT WEATHER AND/OR OBSTRUCTIONS TO VISIBILITY

NCZ015>017-031-032-045>047-102-103-221900-
NORTH COAST

CITY           SKY/WX    TMP DP  RH WIND       PRES   REMARKS
EDENTON        CLOUDY    82  70  67 S14       29.97F
ELIZABETH CITY PTSUNNY   82  69  64 SE13      29.96F
KITTY HAWK     NOT AVBL
MANTEO         PTSUNNY   78  70  78 S15G23    30.01F

$$

NCZ045>047-081-094-103-104-221900-
CENTRAL COAST

CITY           SKY/WX    TMP DP  RH WIND       PRES   REMARKS
FRISCO         MOSUNNY   83  70  64 S13       30.03F

$$

NCZ095-097-098-100-101-221900-
SOUTHERN COAST

CITY           SKY/WX    TMP DP  RH WIND       PRES   REMARKS
BEAUFORT       SUNNY     82  73  74 SW17G23   30.02F
CEDAR ISLAND   NOT AVBL
JACKSONVILLE   NOT AVBL
PINEY ISLAND   CLOUDY   N/A N/A N/A SW17G25   30.00F
WILMINGTON     TSTM      77  72  84 VRB6G21   30.01F


$$

NCZ011>013-027>030-043-044-078>080-089-090>093-098-221900-
COASTAL PLAIN

CITY           SKY/WX    TMP DP  RH WIND       PRES   REMARKS
AHOSKIE          N/A     73  71  95 W5        29.95F
CLINTON        MOSUNNY   85  69  57 W6G16     30.00F
ELIZABETHTOWN  MOSUNNY   85  69  59 S8        30.00F
GOLDSBORO      MOSUNNY   87  67  52 W16       29.97F
GREENVILLE     PTSUNNY   82  70  65 SW14      29.98F
HAVELOCK       CLOUDY    85  69  58 SW13G23   30.00F
KENANSVILLE    PTSUNNY   84  70  61 SW9       30.00F
KINSTON        CLOUDY    86  68  54 SW14      29.98F
NEW BERN       PTSUNNY   82  70  66 SW13G21   30.00F
RICHLANDS      PTSUNNY   85  72  65 SW13      30.00F
ROCKY MOUNT    CLOUDY    75  67  76 W9G20     29.99F
WASHINGTON     SUNNY     83  70  64 SW9G21    29.98F
WHITEVILLE     PTSUNNY   84  68  58 S5        30.01F

$$

AMZ130-135-150-152-154-156-158-170-250-252-270-ANZ085-086-088-633-658-670-221900-
MARINE OBSERVATIONS

STATION/POSITION TIME  TEMP    WIND        PRES    WAVE   SWELL
                       AIR SEA DIR/SP/G            HT/PER HT/PER
                 (UTC) (F)     (DEG/KT/KT) (MB)    (FT/S) (FT/S)
CHESAPEAKE LIGHT NOT AVBL
64 E VA BEACH    1750   71 68  170/ 12/ 14 1016.8    4/ 8   3/ 8
DUCK             1748   71 67  140/ 17/ 18 1015.0
2 E DUCK         1800      67                N/A     4/ 8
OREGON INLET     1742   77 71  160/ 14/ 18 1016.3
13E OREGON INLT  1748      66                N/A     3/ 8   3/ 8
HATTERAS CG      1748   78 74  160/  9/ 13 1016.7
DIAMOND BUOY     1750   77 78  200/ 10/ 12 1017.4    4/ 8   3/ 8
CAPE LOOKOUT     1800   79     210/ 12/ 18 1016.4
BEAUFORT LAB     1748   78 75  200/ 15/ 18 1015.7
30 SE NEW RVR IN 1708   76 76  230/ 14/ 17 1017.6
30 SE NEW RVR IN 1743      76                N/A     4/ 4
27 SE WRIGHTSVLE 1708   76 76  200/ 12/ 17 1016.9
5 SE WRIGHTSVLE  1708   76 75  200/ 10/ 19 1017.1
225 S CAPE HAT   1750   75 78  260/  4/  6 1019.6    4/ 8   3/ 8
41 SE CHARLESTON 1750   78 78  200/ 10/ 14 1017.0    3/10   2/10

$$




USA.gov is the U.S. government's official web portal to all federal, state and local government web resources and services.